Location: Rimouski
(48.4330°N, 68.5170°W)
Time: 20:14:52
(UTC-04:00)

TIGRISAT - Visible Passes

Search period start: 26 June 2019 00:00
Search period end: 06 July 2019 00:00
Orbit: 604 x 690 km, 97.8° (Epoch: 26 June)

Date Brightness Start Highest point End Pass type
(mag) Time Alt. Az. Time Alt. Az. Time Alt. Az.
26 Jun ? 21:29:52 10° NNE 21:34:10 60° ESE 21:38:31 10° S visible
26 Jun ? 23:07:35 10° NNW 23:10:26 18° WNW 23:13:20 10° WSW visible
27 Jun ? 21:55:35 10° N 21:59:55 76° WNW 22:04:20 10° SSW visible
27 Jun ? 23:34:55 10° NW 23:35:52 11° NW 23:36:49 10° WNW visible
28 Jun ? 22:21:29 10° N 22:25:35 42° WNW 22:29:45 10° SW visible
29 Jun ? 22:47:35 10° N 22:51:09 25° WNW 22:54:46 10° WSW visible
30 Jun ? 21:36:04 10° NNE 21:40:27 71° ESE 21:44:54 10° S visible
30 Jun ? 23:14:02 10° NNW 23:16:39 16° WNW 23:19:16 10° W visible
01 Jul ? 22:01:50 10° N 22:06:10 65° WNW 22:10:36 10° SSW visible
02 Jul ? 22:27:46 10° N 22:31:49 37° WNW 22:35:56 10° SW visible
03 Jul ? 21:16:40 10° NNE 21:20:56 46° E 21:25:16 10° S visible
03 Jul ? 22:53:56 10° NNW 22:57:22 23° WNW 23:00:51 10° WSW visible
04 Jul ? 21:42:17 10° NNE 21:46:44 83° ESE 21:51:15 10° SSW visible
04 Jul ? 23:20:32 10° NNW 23:22:50 14° WNW 23:25:09 10° W visible
05 Jul ? 22:08:05 10° N 22:12:26 56° WNW 22:16:51 10° SSW visible
